Regional Weather Roundup
Issued by NWS Albany, NY

Current Version | Previous Version | Text Only | Print | Product List | Glossary On
Versions: 1 2 3 4 5 6 7 8 9 10 11 12 13 14 15 16 17 18 19 20 21 22 23 24 25 26 27 28 29 30 31 32 33 34 35 36 37 38 39 40 41 42 43 44 45 46 47 48 49
000 ASUS41 KALY 020810 RWRALY NEW YORK STATE HOURLY WEATHER ROUNDUP NATIONAL WEATHER SERVICE ALBANY NY 400 AM EDT THU OCT 02 2014 NOTE: "FAIR" INDICATES FEW OR NO CLOUDS BELOW 12,000 FEET WITH NO SIGNIFICANT WEATHER AND/OR NO OBSTRUCTIONS TO VISIBILITY. NYZ032-033-038>043-046>054-057>066-NYZ062>081-020900- EAST CITY SKY/WX TMP DP RH WIND PRES REMARKS ALBANY CLOUDY 59 56 89 NE3 30.13R GLENS FALLS CLOUDY N/A N/A N/A CALM 30.13S POUGHKEEPSIE LGT RAIN 60 57 89 CALM 30.10R MONTGOMERY CLOUDY 59 56 89 N5 30.11R WHITE PLAINS CLOUDY 58 53 84 N3 30.08S ISLIP CLOUDY 60 56 86 NE12 30.04S NEW YORK CITY CLOUDY 61 55 81 N8 30.08S CENTRAL PARK CLOUDY 61 54 77 NE7 30.11F $$ NYZ005>009-017-018-044>046-055-056-020900- CENTRAL CITY SKY/WX TMP DP RH WIND PRES REMARKS FULTON CLEAR 54 52 93 CALM 30.10S FOG SYRACUSE PTCLDY 53 51 93 E6 30.10F ROME CLOUDY 55 53 93 N5 30.13S ELMIRA CLOUDY 54 54 100 CALM 30.10S BINGHAMTON MOCLDY 55 54 96 CALM 30.11S MONTICELLO CLOUDY 55 54 94 E5 30.13S $$ NYZ026>034-041>043-020900- NORTH CITY SKY/WX TMP DP RH WIND PRES REMARKS WATERTOWN PTCLDY 48 43 82 CALM 30.12R HAZE FORT DRUM NOT AVBL MASSENA CLEAR 46 46 100 CALM 30.14F SARANAC LAKE CLOUDY 52 51 97 CALM 30.13S PLATTSBURGH CLOUDY 50 49 96 CALM 30.14S $$ NYZ001>004-010>016-019>021-020900- WEST CITY SKY/WX TMP DP RH WIND PRES REMARKS NIAGARA FALLS FOG 54 52 93 E6 30.07S VSB 1/2 BUFFALO CLEAR 59 56 89 SE5 30.08R DUNKIRK CLEAR 53 51 93 CALM 30.06S JAMESTOWN CLEAR 55 54 94 SE5 30.09F WELLSVILLE FOG 56 55 97 CALM 30.12S VSB 1/4 ROCHESTER FOG 53 52 96 CALM 30.09S VSB 1/4 PENN YAN CLEAR 56 53 90 CALM 30.10S FOG $$ KEY WCI = WIND CHILL INDEX VSB = VISIBILITY HX = HEAT INDEX $$

USA.gov is the U.S. government's official web portal to all federal, state and local government web resources and services.